When you browse on this site, cookies collect data to enhance your experience and personalize the content and advertising you see.
Visit our Privacy Policy to learn more. By continuing to use the site, you agree to this use of cookies and data.
  • In Czech Republic
  • List of Countries
  • For 7 days
  • Water Temperature
  • Weather Map
  • Weather Widgets
  • user-avatar
    Login

    Hourly Weather Lielvarde

    Today, 11 November, Monday

    Time Temperature Precipitation Wind Pressure Humidity
    00:00 +7°C° 0 mm 1 mps 755 mmHg 95%
    01:00 +7°C° 0 mm 1 mps 755 mmHg 94%
    02:00 +7°C° 0 mm 1 mps 755 mmHg 94%
    03:00 +6°C° 0 mm 1 mps 755 mmHg 93%
    04:00 +6°C° 0 mm 1 mps 754 mmHg 92%
    05:00 +6°C° 0 mm 1 mps 754 mmHg 91%
    06:00 +6°C° 0 mm 1 mps 754 mmHg 90%
    07:00 +6°C° 0 mm 1 mps 754 mmHg 90%
    08:00 +6°C° 0 mm 1 mps 755 mmHg 86%
    09:00 +5°C° 0 mm 2 mps 755 mmHg 85%
    10:00 +6°C° 0 mm 2 mps 755 mmHg 84%
    11:00 +6°C° 0 mm 2 mps 755 mmHg 83%
    12:00 +6°C° 0 mm 2 mps 755 mmHg 82%
    13:00 +6°C° 0 mm 2 mps 755 mmHg 81%
    14:00 +7°C° 0 mm 2 mps 755 mmHg 81%
    15:00 +6°C° 0 mm 2 mps 755 mmHg 83%
    16:00 +6°C° 0 mm 2 mps 755 mmHg 86%
    17:00 +5°C° 0 mm 2 mps 755 mmHg 88%
    18:00 +5°C° 0 mm 2 mps 756 mmHg 89%
    19:00 +5°C° 0 mm 2 mps 756 mmHg 89%
    20:00 +5°C° 0 mm 2 mps 756 mmHg 89%
    21:00 +5°C° 0 mm 1 mps 756 mmHg 91%
    22:00 +4°C° 0 mm 1 mps 757 mmHg 92%
    23:00 +4°C° 0 mm 1 mps 757 mmHg 94%

    Tomorrow, 12 November, Tuesday

    Time Temperature Precipitation Wind Pressure Humidity
    00:00 +4°C° 0 mm 1 mps 757 mmHg 94%
    01:00 +3°C° 0 mm 1 mps 758 mmHg 94%
    02:00 +3°C° 0 mm 1 mps 759 mmHg 94%
    03:00 +3°C° 0 mm 1 mps 759 mmHg 94%
    04:00 +3°C° 0 mm 1 mps 759 mmHg 94%
    05:00 +3°C° 0 mm 1 mps 759 mmHg 94%
    06:00 +2°C° 0 mm 2 mps 759 mmHg 95%
    07:00 +2°C° 0 mm 2 mps 759 mmHg 95%
    08:00 +1°C° 0 mm 2 mps 760 mmHg 95%
    09:00 +2°C° 0 mm 3 mps 759 mmHg 89%
    10:00 +3°C° 0 mm 3 mps 759 mmHg 84%
    11:00 +4°C° 0 mm 4 mps 759 mmHg 78%
    12:00 +4°C° 0 mm 4 mps 759 mmHg 77%
    13:00 +5°C° 0 mm 4 mps 759 mmHg 76%
    14:00 +5°C° 0 mm 5 mps 758 mmHg 75%
    15:00 +5°C° 0 mm 5 mps 758 mmHg 77%
    16:00 +5°C° 0 mm 5 mps 758 mmHg 78%
    17:00 +5°C° 0 mm 5 mps 757 mmHg 79%
    18:00 +5°C° 0 mm 5 mps 757 mmHg 79%
    19:00 +5°C° 0 mm 5 mps 757 mmHg 80%
    20:00 +5°C° 0 mm 5 mps 757 mmHg 81%
    21:00 +5°C° 0 mm 5 mps 757 mmHg 82%
    22:00 +5°C° 0 mm 4 mps 757 mmHg 83%
    23:00 +5°C° 0 mm 4 mps 756 mmHg 84%

    Day after tomorrow, 13 November, Wednesday

    Time Temperature Precipitation Wind Pressure Humidity
    00:00 +5°C° 0 mm 4 mps 756 mmHg 85%
    01:00 +6°C° 0 mm 4 mps 756 mmHg 85%
    02:00 +6°C° 0 mm 4 mps 756 mmHg 86%
    03:00 +6°C° 0.1 mm 4 mps 755 mmHg 87%
    04:00 +6°C° 0.1 mm 4 mps 755 mmHg 88%
    05:00 +6°C° 0.1 mm 4 mps 754 mmHg 90%
    06:00 +6°C° 0.3 mm 4 mps 754 mmHg 89%
    07:00 +7°C° 0.3 mm 4 mps 753 mmHg 89%
    08:00 +7°C° 0.3 mm 4 mps 753 mmHg 88%
    09:00 +7°C° 0.1 mm 4 mps 753 mmHg 88%
    10:00 +7°C° 0.1 mm 4 mps 753 mmHg 87%
    11:00 +8°C° 0.1 mm 4 mps 752 mmHg 86%
    12:00 +8°C° 0 mm 4 mps 752 mmHg 86%
    13:00 +10°C° 0 mm 4 mps 752 mmHg 85%
    14:00 +10°C° 0 mm 4 mps 752 mmHg 84%
    15:00 +10°C° 0 mm 4 mps 751 mmHg 83%
    16:00 +10°C° 0 mm 4 mps 751 mmHg 83%
    17:00 +10°C° 0 mm 4 mps 750 mmHg 82%
    18:00 +11°C° 0 mm 4 mps 750 mmHg 80%
    19:00 +10°C° 0 mm 5 mps 750 mmHg 78%
    20:00 +12°C° 0 mm 5 mps 750 mmHg 77%
    21:00 +12°C° 0.2 mm 5 mps 750 mmHg 79%
    22:00 +12°C° 0.2 mm 5 mps 751 mmHg 82%
    23:00 +12°C° 0.2 mm 4 mps 751 mmHg 84%

    14 November, Thursday

    Time Temperature Precipitation Wind Pressure Humidity
    00:00 +12°C° 0 mm 4 mps 751 mmHg 85%
    01:00 +12°C° 0 mm 4 mps 752 mmHg 85%
    02:00 +12°C° 0 mm 3 mps 752 mmHg 86%
    03:00 +11°C° 0.1 mm 4 mps 752 mmHg 86%
    04:00 +11°C° 0.1 mm 4 mps 751 mmHg 86%
    05:00 +11°C° 0.1 mm 4 mps 751 mmHg 85%
    06:00 +10°C° 0 mm 5 mps 751 mmHg 83%
    07:00 +10°C° 0 mm 5 mps 751 mmHg 81%
    08:00 +10°C° 0 mm 5 mps 751 mmHg 79%
    09:00 +10°C° 0 mm 5 mps 751 mmHg 78%
    10:00 +11°C° 0 mm 6 mps 751 mmHg 77%
    11:00 +13°C° 0 mm 6 mps 752 mmHg 76%
    12:00 +13°C° 0 mm 6 mps 752 mmHg 75%
    13:00 +13°C° 0 mm 6 mps 752 mmHg 74%
    14:00 +14°C° 0 mm 6 mps 753 mmHg 73%
    15:00 +13°C° 0 mm 5 mps 753 mmHg 76%
    16:00 +13°C° 0 mm 5 mps 754 mmHg 78%
    17:00 +13°C° 0 mm 5 mps 754 mmHg 80%
    18:00 +12°C° 0 mm 4 mps 755 mmHg 83%
    19:00 +11°C° 0 mm 4 mps 756 mmHg 85%
    20:00 +10°C° 0 mm 3 mps 756 mmHg 87%
    21:00 +9°C° 0 mm 3 mps 757 mmHg 89%
    22:00 +9°C° 0 mm 2 mps 757 mmHg 92%
    23:00 +9°C° 0 mm 1 mps 758 mmHg 94%

    15 November, Friday

    Time Temperature Precipitation Wind Pressure Humidity
    00:00 +9°C° 0 mm 1 mps 758 mmHg 94%
    01:00 +9°C° 0 mm 1 mps 758 mmHg 94%
    02:00 +8°C° 0 mm 0 mps 759 mmHg 94%
    03:00 +8°C° 0.1 mm 0 mps 759 mmHg 94%
    04:00 +9°C° 0.1 mm 1 mps 759 mmHg 94%
    05:00 +9°C° 0.1 mm 1 mps 759 mmHg 94%
    06:00 +9°C° 0.3 mm 1 mps 759 mmHg 94%
    07:00 +9°C° 0.3 mm 1 mps 759 mmHg 94%
    08:00 +9°C° 0.3 mm 1 mps 759 mmHg 95%
    09:00 +8°C° 0.5 mm 2 mps 760 mmHg 93%
    10:00 +8°C° 0.5 mm 2 mps 760 mmHg 92%
    11:00 +9°C° 0.5 mm 2 mps 760 mmHg 90%
    12:00 +9°C° 0 mm 2 mps 760 mmHg 89%
    13:00 +9°C° 0 mm 2 mps 760 mmHg 87%
    14:00 +9°C° 0 mm 2 mps 760 mmHg 85%
    15:00 +8°C° 0 mm 2 mps 759 mmHg 85%
    16:00 +8°C° 0 mm 2 mps 759 mmHg 85%
    17:00 +7°C° 0 mm 2 mps 759 mmHg 85%
    18:00 +7°C° 0 mm 2 mps 759 mmHg 84%
    19:00 +7°C° 0 mm 2 mps 759 mmHg 84%
    20:00 +7°C° 0 mm 2 mps 760 mmHg 83%
    21:00 +6°C° 0 mm 2 mps 760 mmHg 84%
    22:00 +6°C° 0 mm 2 mps 760 mmHg 84%
    23:00 +6°C° 0 mm 2 mps 760 mmHg 85%

    16 November, Saturday

    Time Temperature Precipitation Wind Pressure Humidity
    00:00 +5°C° 0 mm 2 mps 760 mmHg 86%
    01:00 +5°C° 0 mm 2 mps 760 mmHg 88%
    02:00 +5°C° 0 mm 2 mps 760 mmHg 90%
    03:00 +5°C° 0 mm 2 mps 760 mmHg 90%
    04:00 +4°C° 0 mm 2 mps 760 mmHg 91%
    05:00 +4°C° 0 mm 2 mps 760 mmHg 92%
    06:00 +4°C° 0 mm 2 mps 760 mmHg 92%
    07:00 +4°C° 0 mm 2 mps 761 mmHg 91%
    08:00 +4°C° 0 mm 2 mps 761 mmHg 91%
    09:00 +4°C° 0 mm 3 mps 761 mmHg 89%
    10:00 +4°C° 0 mm 3 mps 761 mmHg 87%
    11:00 +5°C° 0 mm 3 mps 761 mmHg 85%
    12:00 +5°C° 0 mm 3 mps 761 mmHg 85%
    13:00 +7°C° 0 mm 3 mps 761 mmHg 85%
    14:00 +7°C° 0 mm 3 mps 761 mmHg 85%
    15:00 +7°C° 0 mm 3 mps 761 mmHg 87%
    16:00 +7°C° 0 mm 3 mps 761 mmHg 89%
    17:00 +5°C° 0 mm 3 mps 761 mmHg 91%
    18:00 +5°C° 0 mm 3 mps 761 mmHg 91%
    19:00 +5°C° 0 mm 3 mps 761 mmHg 91%
    20:00 +5°C° 0 mm 3 mps 761 mmHg 91%
    21:00 +5°C° 0 mm 3 mps 761 mmHg 92%
    22:00 +5°C° 0 mm 3 mps 762 mmHg 93%
    23:00 +5°C° 0 mm 3 mps 762 mmHg 94%
    Show more